Regional Weather Roundup
Issued by NWS

Home | Current Version | Previous Version | Text Only | Print | Product List | Glossary On
Versions: 1 2 3 4 5 6 7 8 9 10 11 12 13 14 15 16 17 18 19 20 21 22 23 24 25 26 27 28 29 30 31 32 33 34 35 36 37 38 39 40 41 42 43 44 45 46 47 48 49 50
000
ASUS44 KOUN 262210
RWROK

WEATHER ROUNDUP FOR OKLAHOMA
NATIONAL WEATHER SERVICE NORMAN OK
500 PM CDT SUN APR 26 2015

NOTE: "FAIR" INDICATES FEW OR NO CLOUDS BELOW 12,000 FEET WITH NO
      SIGNIFICANT WEATHER AND/OR OBSTRUCTIONS TO VISIBILITY.

OKZ001>007-009>012-014-015-017-262300-
NORTHWEST OKLAHOMA AND THE PANHANDLE

CITY           SKY/WX    TMP DP  RH WIND       PRES   REMARKS
GAGE           CLOUDY    53  50  89 NE16G24   29.75F
GUYMON         CLOUDY    51  47  86 NE16      29.77R
ENID/WOODRING  CLOUDY    66  54  63 NE18G28   29.75S
$$

OKZ016-021>023-033>039-044-045-262300-
SOUTHWEST OKLAHOMA

CITY           SKY/WX    TMP DP  RH WIND       PRES   REMARKS
LAWTON/REGL    CLOUDY    74  61  63 N6        29.63F
LAWTON/FT SILL CLOUDY    72  64  78 N12       29.63R
FREDERICK      CLOUDY    69  61  75 N16       29.58F
CLINTON        CLOUDY    61  54  77 NE15      29.73F
HOBART         LGT RAIN  65  59  81 NE13      29.69F
ALTUS AFB      MOSUNNY   66  61  82 NE12      29.62F
$$

OKZ018>020-024>031-262300-
CENTRAL OKLAHOMA

CITY           SKY/WX    TMP DP  RH WIND       PRES   REMARKS
OKLAHOMA CITY  CLOUDY    73  58  59 E9G20     29.70S
OKC/WILEY POST CLOUDY    71  58  63 E12       29.70F
OKC/TINKER AFB CLOUDY    72  59  64 NE10      29.69S
STILLWATER     PTSUNNY   68  54  60 E16G25    29.75S
GUTHRIE        CLOUDY    69  55  60 NE16G22   29.72S
$$

OKZ008-013-054>072-262300-
NORTHEAST OKLAHOMA

CITY           SKY/WX    TMP DP  RH WIND       PRES   REMARKS
TULSA          PTSUNNY   70  55  59 N12G21    29.75S
TULSA/JONES    PTSUNNY   72  57  59 NE14G23   29.75S
PONCA CITY     MOSUNNY   64  51  62 E21G31    29.78F
BARTLESVILLE   CLOUDY    60  50  69 NE15G23   29.83R
MUSKOGEE       PTSUNNY   78  60  53 NE14      29.72F
$$

OKZ032-040>043-046>053-073>077-262300-
SOUTH CENTRAL/SOUTHEAST OKLAHOMA

CITY           SKY/WX    TMP DP  RH WIND       PRES   REMARKS
ARDMORE/DWNTWN CLOUDY    75  61  60 CALM      29.66R
MCALESTER      CLOUDY    81  64  56 NE8G17    29.67F
$$



USA.gov is the U.S. government's official web portal to all federal, state and local government web resources and services.